Regional Weather Roundup
Issued by NWS Albany, NY

Home | Current Version | Previous Version | Graphics & Text | Print | Product List | Glossary On
Versions: 1 2 3 4 5 6 7 8 9 10 11 12 13 14 15 16 17 18 19 20 21 22 23 24 25 26 27 28
000
ASUS41 KALY 190510
RWRALY

NEW YORK STATE HOURLY WEATHER ROUNDUP
NATIONAL WEATHER SERVICE ALBANY NY
100 AM EDT SAT APR 19 2014

NOTE: "FAIR" INDICATES FEW OR NO CLOUDS BELOW 12,000 FEET WITH NO
SIGNIFICANT WEATHER AND/OR NO OBSTRUCTIONS TO VISIBILITY.

NYZ032-033-038>043-046>054-057>066-NYZ062>081-190600-
EAST


CITY           SKY/WX    TMP DP  RH WIND       PRES   REMARKS
ALBANY         MOCLDY    41  26  55 CALM      30.22S
GLENS FALLS    CLOUDY    41  29  62 CALM      30.20F
POUGHKEEPSIE   MOCLDY    41  32  70 SE5       30.22F
NEWBURGH       PTCLDY    43  32  65 SW6       30.24F
MONTGOMERY     MOCLDY    38  30  73 SW5       30.22F WCI  34
WHITE PLAINS   CLOUDY    38  33  82 CALM      30.25S
ISLIP          CLOUDY    39  34  82 SW5       30.25F
NEW YORK CITY  CLOUDY    42  33  70 SW5       30.27S
CENTRAL PARK   CLOUDY    42  31  64 W5        30.29S
$$

NYZ005>009-017-018-044>046-055-056-190600-
CENTRAL


CITY           SKY/WX    TMP DP  RH WIND       PRES   REMARKS
FULTON         CLOUDY    43  37  79 W7        30.26R
SYRACUSE       CLOUDY    45  39  79 W9        30.26R
ROME           LGT RAIN  45  41  86 W12       30.24R
ELMIRA         CLOUDY    48  37  65 CALM      30.25R
BINGHAMTON     PTCLDY    43  31  62 NW3       30.21S
MONTICELLO     MOCLDY    36  27  69 CALM      30.23S
$$

NYZ026>034-041>043-190600-
NORTH


CITY           SKY/WX    TMP DP  RH WIND       PRES   REMARKS
WATERTOWN      MOCLDY    41  34  76 SW8       30.23R
FORT DRUM      NOT AVBL
MASSENA        CLOUDY    42  41  96 SW3       30.18S
SARANAC LAKE   CLOUDY    38  37  97 W3        30.12F
PLATTSBURGH    CLOUDY    44  28  53 CALM      30.15F
$$

NYZ001>004-010>016-019>021-190600-
WEST


CITY           SKY/WX    TMP DP  RH WIND       PRES   REMARKS
NIAGARA FALLS  CLEAR     36  29  75 W3        30.30R
BUFFALO        CLEAR     41  32  70 NW6       30.30R
DUNKIRK        CLEAR     38  35  89 CALM      30.32R
JAMESTOWN      CLEAR     41  36  81 N5        30.28S
WELLSVILLE     PTCLDY    43  35  73 NW10      30.27R
ROCHESTER      CLOUDY    44  39  82 NW13      30.28R
PENN YAN       MOCLDY    47  37  68 W5        30.26S
$$

             KEY
       WCI = WIND CHILL INDEX
       VSB = VISIBILITY
       HX  = HEAT INDEX
$$



USA.gov is the U.S. government's official web portal to all federal, state and local government web resources and services.